Time,TemperatureF,DewpointF,PressureIn,WindDirection,WindDirectionDegrees,WindSpeedMPH,WindSpeedGustMPH,Humidity,HourlyPrecipIn,Conditions,Clouds,dailyrainin,SoftwareType,DateUTC
2013-01-03 00:07:00,50.5,50.0,30.04,North,-999,-999.0,3.0,98,-99.99,,,-99.99,meteohub,2013-01-03 00:07:00,
2013-01-03 00:12:00,50.5,50.0,30.04,East,90,2.0,2.0,98,-99.99,,,-99.99,meteohub,2013-01-03 00:12:00,
2013-01-03 00:17:00,50.5,50.0,30.04,North,-999,-999.0,2.0,98,-99.99,,,-99.99,meteohub,2013-01-03 00:17:00,
2013-01-03 00:22:00,50.5,50.0,30.04,North,-999,-999.0,2.0,98,-99.99,,,-99.99,meteohub,2013-01-03 00:22:00,
2013-01-03 00:37:00,50.4,49.8,30.04,ENE,68,4.0,4.0,98,-99.99,,,-99.99,meteohub,2013-01-03 00:37:00,
2013-01-03 00:47:00,50.2,49.6,30.04,NNW,338,3.0,4.0,98,-99.99,,,-99.99,meteohub,2013-01-03 00:47:00,
2013-01-03 00:52:00,50.2,49.6,30.04,North,-999,-999.0,4.0,98,-99.99,,,-99.99,meteohub,2013-01-03 00:52:00,
2013-01-03 01:02:00,50.2,49.6,30.04,North,-999,-999.0,2.0,98,-99.99,,,-99.99,meteohub,2013-01-03 01:02:00,
2013-01-03 01:12:00,49.8,49.3,30.04,ESE,112,1.0,3.0,98,-99.99,,,-99.99,meteohub,2013-01-03 01:12:00,
2013-01-03 01:17:00,49.8,49.3,30.04,North,-999,-999.0,3.0,98,-99.99,,,-99.99,meteohub,2013-01-03 01:17:00,
2013-01-03 01:22:00,49.5,48.9,30.04,NNW,338,0.0,2.0,98,-99.99,,,-99.99,meteohub,2013-01-03 01:22:00,
2013-01-03 01:27:00,49.5,48.9,30.04,NNE,22,1.0,1.0,98,-99.99,,,-99.99,meteohub,2013-01-03 01:27:00,
2013-01-03 01:37:00,49.6,49.1,30.04,NW,315,0.0,3.0,98,-99.99,,,-99.99,meteohub,2013-01-03 01:37:00,
2013-01-03 01:42:00,49.6,49.1,30.04,NNW,338,0.0,3.0,98,-99.99,,,-99.99,meteohub,2013-01-03 01:42:00,
2013-01-03 01:47:00,49.6,49.1,30.04,SSW,202,2.0,2.0,98,-99.99,,,-99.99,meteohub,2013-01-03 01:47:00,
2013-01-03 01:52:00,49.6,49.1,30.04,NNW,338,2.0,2.0,98,-99.99,,,-99.99,meteohub,2013-01-03 01:52:00,
2013-01-03 01:57:00,49.6,49.1,30.04,WNW,292,0.0,2.0,98,-99.99,,,-99.99,meteohub,2013-01-03 01:57:00,
2013-01-03 02:02:00,49.6,49.1,30.04,North,-999,-999.0,2.0,98,-99.99,,,-99.99,meteohub,2013-01-03 02:02:00,
2013-01-03 02:07:00,49.6,49.1,30.04,North,-999,-999.0,0.0,98,-99.99,,,-99.99,meteohub,2013-01-03 02:07:00,
2013-01-03 02:12:00,49.6,49.1,30.04,NNE,22,1.0,1.0,98,-99.99,,,-99.99,meteohub,2013-01-03 02:12:00,
2013-01-03 02:17:00,49.8,49.3,30.04,ENE,68,3.0,3.0,98,-99.99,,,-99.99,meteohub,2013-01-03 02:17:00,
2013-01-03 02:22:00,49.8,49.3,30.04,NNW,338,4.0,4.0,98,-99.99,,,-99.99,meteohub,2013-01-03 02:22:00,
2013-01-03 02:27:00,49.8,49.3,30.04,WNW,292,3.0,4.0,98,-99.99,,,-99.99,meteohub,2013-01-03 02:27:00,
2013-01-03 02:32:00,50.0,49.5,30.04,North,-999,-999.0,4.0,98,-99.99,,,-99.99,meteohub,2013-01-03 02:32:00,
2013-01-03 02:37:00,50.0,49.5,30.07,North,-999,-999.0,3.0,98,-99.99,,,-99.99,meteohub,2013-01-03 02:37:00,
2013-01-03 02:47:00,50.0,49.5,30.07,ESE,112,3.0,3.0,98,-99.99,,,-99.99,meteohub,2013-01-03 02:47:00,
2013-01-03 02:52:00,50.0,49.5,30.07,North,-999,-999.0,3.0,98,-99.99,,,-99.99,meteohub,2013-01-03 02:52:00,
2013-01-03 02:57:00,50.0,49.5,30.07,ENE,68,0.0,3.0,98,-99.99,,,-99.99,meteohub,2013-01-03 02:57:00,
2013-01-03 03:02:00,50.0,49.5,30.07,North,-999,-999.0,3.0,98,-99.99,,,-99.99,meteohub,2013-01-03 03:02:00,
2013-01-03 03:07:00,50.0,49.5,30.07,North,-999,-999.0,3.0,98,-99.99,,,-99.99,meteohub,2013-01-03 03:07:00,
2013-01-03 03:17:00,50.0,49.5,30.07,NNW,338,2.0,3.0,98,-99.99,,,-99.99,meteohub,2013-01-03 03:17:00,
2013-01-03 03:22:00,49.8,49.3,30.07,NNE,22,0.0,3.0,98,-99.99,,,-99.99,meteohub,2013-01-03 03:22:00,
2013-01-03 03:27:00,49.8,49.3,30.07,North,-999,-999.0,2.0,98,-99.99,,,-99.99,meteohub,2013-01-03 03:27:00,
2013-01-03 03:32:00,49.8,49.3,30.07,NNE,22,3.0,3.0,98,-99.99,,,-99.99,meteohub,2013-01-03 03:32:00,
2013-01-03 03:47:00,49.6,49.1,30.07,SSW,202,2.0,3.0,98,-99.99,,,-99.99,meteohub,2013-01-03 03:47:00,
2013-01-03 03:52:00,49.6,49.1,30.07,NNW,338,2.0,5.0,98,-99.99,,,-99.99,meteohub,2013-01-03 03:52:00,
2013-01-03 03:57:00,49.6,49.1,30.07,North,-999,-999.0,5.0,98,-99.99,,,-99.99,meteohub,2013-01-03 03:57:00,
2013-01-03 04:02:00,49.5,48.9,30.07,ESE,112,2.0,3.0,98,-99.99,,,-99.99,meteohub,2013-01-03 04:02:00,
2013-01-03 04:12:00,49.3,48.7,30.07,North,-999,-999.0,3.0,98,-99.99,,,-99.99,meteohub,2013-01-03 04:12:00,
2013-01-03 04:17:00,48.9,48.4,30.07,North,-999,-999.0,2.0,98,-99.99,,,-99.99,meteohub,2013-01-03 04:17:00,
2013-01-03 04:22:00,48.7,48.2,30.07,WSW,248,2.0,2.0,98,-99.99,,,-99.99,meteohub,2013-01-03 04:22:00,
2013-01-03 04:32:00,48.6,48.0,30.07,NNE,22,0.0,3.0,98,-99.99,,,-99.99,meteohub,2013-01-03 04:32:00,
2013-01-03 04:37:00,48.4,47.8,30.07,NW,315,0.0,3.0,98,-99.99,,,-99.99,meteohub,2013-01-03 04:37:00,
2013-01-03 04:42:00,48.2,47.7,30.07,SE,135,1.0,3.0,98,-99.99,,,-99.99,meteohub,2013-01-03 04:42:00,
2013-01-03 04:47:00,48.2,47.7,30.07,SSE,158,0.0,2.0,98,-99.99,,,-99.99,meteohub,2013-01-03 04:47:00,
2013-01-03 05:03:00,48.2,47.7,30.10,North,-999,-999.0,0.0,98,-99.99,,,-99.99,meteohub,2013-01-03 05:03:00,
2013-01-03 05:07:00,48.0,47.5,30.10,WNW,292,1.0,-999.0,98,-99.99,,,-99.99,meteohub,2013-01-03 05:07:00,
2013-01-03 05:12:00,48.0,47.5,30.10,ESE,112,0.0,4.0,98,-99.99,,,-99.99,meteohub,2013-01-03 05:12:00,
2013-01-03 05:17:00,48.0,47.5,30.10,North,-999,-999.0,4.0,98,-99.99,,,-99.99,meteohub,2013-01-03 05:17:00,
2013-01-03 05:22:00,48.0,47.5,30.10,East,90,3.0,4.0,98,-99.99,,,-99.99,meteohub,2013-01-03 05:22:00,
2013-01-03 05:27:00,47.8,47.3,30.10,NNW,338,1.0,3.0,98,-99.99,,,-99.99,meteohub,2013-01-03 05:27:00,
2013-01-03 05:37:00,48.0,47.5,30.10,WSW,248,2.0,3.0,98,-99.99,,,-99.99,meteohub,2013-01-03 05:37:00,
2013-01-03 05:42:00,48.2,47.7,30.10,NE,45,4.0,4.0,98,-99.99,,,-99.99,meteohub,2013-01-03 05:42:00,
2013-01-03 05:47:00,48.2,47.7,30.10,WNW,292,2.0,4.0,98,-99.99,,,-99.99,meteohub,2013-01-03 05:47:00,
2013-01-03 05:57:00,48.4,47.8,30.10,NNE,22,2.0,4.0,98,-99.99,,,-99.99,meteohub,2013-01-03 05:57:00,
2013-01-03 06:02:00,48.4,47.8,30.10,NNW,338,0.0,3.0,98,-99.99,,,-99.99,meteohub,2013-01-03 06:02:00,
2013-01-03 06:12:00,48.6,48.0,30.10,North,-999,-999.0,3.0,98,-99.99,,,-99.99,meteohub,2013-01-03 06:12:00,
2013-01-03 06:17:00,48.7,48.2,30.10,North,-999,-999.0,0.0,98,-99.99,,,-99.99,meteohub,2013-01-03 06:17:00,
2013-01-03 06:22:00,48.7,48.2,30.10,NW,315,4.0,6.0,98,-99.99,,,-99.99,meteohub,2013-01-03 06:22:00,
2013-01-03 06:27:00,48.7,48.2,30.10,NW,315,3.0,6.0,98,-99.99,,,-99.99,meteohub,2013-01-03 06:27:00,
2013-01-03 06:32:00,48.7,48.2,30.10,ENE,68,1.0,6.0,98,-99.99,,,-99.99,meteohub,2013-01-03 06:32:00,
2013-01-03 06:37:00,48.7,48.2,30.13,SSE,158,3.0,3.0,98,-99.99,,,-99.99,meteohub,2013-01-03 06:37:00,
2013-01-03 06:42:00,48.7,48.2,30.13,North,-999,-999.0,3.0,98,-99.99,,,-99.99,meteohub,2013-01-03 06:42:00,
2013-01-03 06:52:00,48.7,48.2,30.13,WNW,292,4.0,4.0,98,-99.99,,,-99.99,meteohub,2013-01-03 06:52:00,
2013-01-03 07:02:00,48.7,48.2,30.13,SW,225,1.0,4.0,98,-99.99,,,-99.99,meteohub,2013-01-03 07:02:00,
2013-01-03 07:07:00,48.7,48.2,30.13,East,90,1.0,3.0,98,-99.99,,,-99.99,meteohub,2013-01-03 07:07:00,
2013-01-03 07:22:00,48.7,48.2,30.13,North,-999,-999.0,3.0,98,-99.99,,,-99.99,meteohub,2013-01-03 07:22:00,
2013-01-03 07:27:00,48.7,48.2,30.13,NW,315,3.0,3.0,98,-99.99,,,-99.99,meteohub,2013-01-03 07:27:00,
2013-01-03 07:32:00,48.7,48.2,30.13,WNW,292,1.0,3.0,98,-99.99,,,-99.99,meteohub,2013-01-03 07:32:00,
2013-01-03 07:37:00,48.9,48.4,30.13,ENE,68,1.0,3.0,98,-99.99,,,-99.99,meteohub,2013-01-03 07:37:00,
2013-01-03 07:42:00,48.9,48.4,30.13,NNE,22,3.0,5.0,98,-99.99,,,-99.99,meteohub,2013-01-03 07:42:00,
2013-01-03 07:47:00,48.9,48.4,30.13,ENE,68,1.0,5.0,98,-99.99,,,-99.99,meteohub,2013-01-03 07:47:00,
2013-01-03 07:52:00,48.9,48.4,30.13,SE,135,2.0,5.0,98,-99.99,,,-99.99,meteohub,2013-01-03 07:52:00,
2013-01-03 07:57:00,48.9,48.4,30.13,NNE,22,2.0,5.0,98,-99.99,,,-99.99,meteohub,2013-01-03 07:57:00,
2013-01-03 08:07:00,48.9,48.4,30.16,ESE,112,1.0,4.0,98,-99.99,,,-99.99,meteohub,2013-01-03 08:07:00,
2013-01-03 08:17:00,49.1,48.6,30.16,ENE,68,4.0,4.0,98,-99.99,,,-99.99,meteohub,2013-01-03 08:17:00,
2013-01-03 08:27:00,49.1,48.6,30.16,North,-999,-999.0,4.0,98,-99.99,,,-99.99,meteohub,2013-01-03 08:27:00,
2013-01-03 08:37:00,49.3,48.7,30.16,ENE,68,0.0,4.0,98,-99.99,,,-99.99,meteohub,2013-01-03 08:37:00,
2013-01-03 08:47:00,49.6,49.1,30.16,NNW,338,3.0,3.0,98,-99.99,,,-99.99,meteohub,2013-01-03 08:47:00,
2013-01-03 08:52:00,49.6,49.1,30.16,North,-999,-999.0,3.0,98,-99.99,,,-99.99,meteohub,2013-01-03 08:52:00,
2013-01-03 08:57:00,49.6,49.1,30.16,North,-999,-999.0,3.0,98,-99.99,,,-99.99,meteohub,2013-01-03 08:57:00,
2013-01-03 09:12:00,50.0,49.5,30.16,ENE,68,3.0,4.0,98,-99.99,,,-99.99,meteohub,2013-01-03 09:12:00,
2013-01-03 09:17:00,49.8,49.3,30.16,WSW,248,3.0,4.0,98,-99.99,,,-99.99,meteohub,2013-01-03 09:17:00,
2013-01-03 09:22:00,50.0,49.5,30.16,SSW,202,2.0,6.0,98,-99.99,,,-99.99,meteohub,2013-01-03 09:22:00,
2013-01-03 09:27:00,50.0,49.5,30.16,North,-999,-999.0,6.0,98,-99.99,,,-99.99,meteohub,2013-01-03 09:27:00,
2013-01-03 09:32:00,50.0,49.5,30.16,SW,225,1.0,3.0,98,-99.99,,,-99.99,meteohub,2013-01-03 09:32:00,
2013-01-03 09:37:00,50.2,49.6,30.16,ESE,112,2.0,3.0,98,-99.99,,,-99.99,meteohub,2013-01-03 09:37:00,
2013-01-03 09:42:00,50.4,49.8,30.16,NE,45,2.0,3.0,98,-99.99,,,-99.99,meteohub,2013-01-03 09:42:00,
2013-01-03 09:47:00,50.4,49.8,30.16,ENE,68,3.0,3.0,98,-99.99,,,-99.99,meteohub,2013-01-03 09:47:00,
2013-01-03 09:52:00,50.5,50.0,30.19,NE,45,3.0,3.0,98,-99.99,,,-99.99,meteohub,2013-01-03 09:52:00,
2013-01-03 09:57:00,50.7,49.8,30.19,SE,135,1.0,6.0,97,-99.99,,,-99.99,meteohub,2013-01-03 09:57:00,
2013-01-03 10:02:00,50.7,49.6,30.19,SSE,158,2.0,6.0,96,-99.99,,,-99.99,meteohub,2013-01-03 10:02:00,
2013-01-03 10:07:00,50.7,49.3,30.19,ESE,112,3.0,3.0,95,-99.99,,,-99.99,meteohub,2013-01-03 10:07:00,
2013-01-03 10:17:00,50.9,49.3,30.19,NNE,22,3.0,3.0,94,-99.99,,,-99.99,meteohub,2013-01-03 10:17:00,
2013-01-03 10:22:00,50.7,49.1,30.19,SSW,202,2.0,3.0,94,-99.99,,,-99.99,meteohub,2013-01-03 10:22:00,
2013-01-03 10:32:00,51.1,49.5,30.19,ESE,112,3.0,4.0,94,-99.99,,,-99.99,meteohub,2013-01-03 10:32:00,
2013-01-03 10:37:00,51.1,49.1,30.19,NE,45,2.0,4.0,93,-99.99,,,-99.99,meteohub,2013-01-03 10:37:00,
2013-01-03 10:47:00,51.3,49.3,30.19,WNW,292,3.0,4.0,93,-99.99,,,-99.99,meteohub,2013-01-03 10:47:00,
2013-01-03 10:52:00,51.3,49.1,30.19,NE,45,5.0,5.0,92,-99.99,,,-99.99,meteohub,2013-01-03 10:52:00,
2013-01-03 10:57:00,51.4,49.5,30.19,ENE,68,3.0,5.0,93,-99.99,,,-99.99,meteohub,2013-01-03 10:57:00,
2013-01-03 11:07:00,51.4,49.3,30.19,WNW,292,1.0,3.0,92,-99.99,,,-99.99,meteohub,2013-01-03 11:07:00,
2013-01-03 11:12:00,51.4,49.3,30.19,North,-999,-999.0,3.0,92,-99.99,,,-99.99,meteohub,2013-01-03 11:12:00,
2013-01-03 11:17:00,51.6,49.5,30.19,WNW,292,5.0,5.0,92,-99.99,,,-99.99,meteohub,2013-01-03 11:17:00,
2013-01-03 11:27:00,51.6,49.5,30.19,NNW,338,0.0,5.0,92,-99.99,,,-99.99,meteohub,2013-01-03 11:27:00,
2013-01-03 11:32:00,51.6,49.5,30.19,SE,135,2.0,4.0,92,-99.99,,,-99.99,meteohub,2013-01-03 11:32:00,
2013-01-03 11:37:00,51.8,49.3,30.19,ESE,112,2.0,4.0,91,-99.99,,,-99.99,meteohub,2013-01-03 11:37:00,
2013-01-03 11:42:00,52.2,49.8,30.19,NNW,338,2.0,3.0,92,-99.99,,,-99.99,meteohub,2013-01-03 11:42:00,
2013-01-03 11:52:00,52.0,49.5,30.22,NNE,22,1.0,3.0,91,-99.99,,,-99.99,meteohub,2013-01-03 11:52:00,
2013-01-03 11:57:00,52.0,49.1,30.22,West,270,3.0,3.0,90,-99.99,,,-99.99,meteohub,2013-01-03 11:57:00,
2013-01-03 12:02:00,52.0,49.1,30.22,WNW,292,3.0,3.0,90,-99.99,,,-99.99,meteohub,2013-01-03 12:02:00,
2013-01-03 12:07:00,51.8,48.9,30.22,WSW,248,3.0,3.0,90,-99.99,,,-99.99,meteohub,2013-01-03 12:07:00,
2013-01-03 12:12:00,51.8,48.9,30.22,North,-999,-999.0,4.0,90,-99.99,,,-99.99,meteohub,2013-01-03 12:12:00,
2013-01-03 12:17:00,52.0,49.1,30.22,ESE,112,0.0,4.0,90,-99.99,,,-99.99,meteohub,2013-01-03 12:17:00,
2013-01-03 12:22:00,52.3,49.8,30.19,SSW,202,2.0,3.0,91,-99.99,,,-99.99,meteohub,2013-01-03 12:22:00,
2013-01-03 12:27:00,52.3,49.8,30.19,SW,225,3.0,4.0,91,-99.99,,,-99.99,meteohub,2013-01-03 12:27:00,
2013-01-03 12:32:00,52.3,49.5,30.19,ENE,68,1.0,4.0,90,-99.99,,,-99.99,meteohub,2013-01-03 12:32:00,
2013-01-03 12:37:00,52.5,49.5,30.22,ESE,112,1.0,3.0,89,-99.99,,,-99.99,meteohub,2013-01-03 12:37:00,
2013-01-03 12:42:00,52.7,49.8,30.22,NNE,22,3.0,3.0,90,-99.99,,,-99.99,meteohub,2013-01-03 12:42:00,
2013-01-03 12:47:00,52.7,49.6,30.22,NNW,338,1.0,3.0,89,-99.99,,,-99.99,meteohub,2013-01-03 12:47:00,
2013-01-03 12:52:00,52.7,49.3,30.19,SE,135,3.0,4.0,88,-99.99,,,-99.99,meteohub,2013-01-03 12:52:00,
2013-01-03 12:57:00,52.7,49.3,30.19,NW,315,3.0,4.0,88,-99.99,,,-99.99,meteohub,2013-01-03 12:57:00,
2013-01-03 13:02:00,52.7,49.3,30.19,WSW,248,2.0,4.0,88,-99.99,,,-99.99,meteohub,2013-01-03 13:02:00,
2013-01-03 13:07:00,52.9,49.5,30.22,ESE,112,3.0,3.0,88,-99.99,,,-99.99,meteohub,2013-01-03 13:07:00,
2013-01-03 13:12:00,53.1,49.8,30.22,North,-999,-999.0,3.0,89,-99.99,,,-99.99,meteohub,2013-01-03 13:12:00,
2013-01-03 13:17:00,53.2,49.8,30.22,NNE,22,4.0,4.0,88,-99.99,,,-99.99,meteohub,2013-01-03 13:17:00,
2013-01-03 13:22:00,53.2,49.8,30.19,West,270,2.0,4.0,88,-99.99,,,-99.99,meteohub,2013-01-03 13:22:00,
2013-01-03 13:27:00,53.2,49.5,30.19,North,-999,-999.0,4.0,87,-99.99,,,-99.99,meteohub,2013-01-03 13:27:00,
2013-01-03 13:32:00,53.2,49.1,30.19,North,-999,-999.0,2.0,86,-99.99,,,-99.99,meteohub,2013-01-03 13:32:00,
2013-01-03 13:37:00,53.2,49.1,30.22,North,-999,-999.0,-999.0,86,-99.99,,,-99.99,meteohub,2013-01-03 13:37:00,
2013-01-03 13:42:00,53.1,48.7,30.22,NNW,338,1.0,-999.0,85,-99.99,,,-99.99,meteohub,2013-01-03 13:42:00,
2013-01-03 13:47:00,53.1,48.7,30.22,North,-999,-999.0,1.0,85,-99.99,,,-99.99,meteohub,2013-01-03 13:47:00,
2013-01-03 13:52:00,53.1,48.7,30.22,NNE,22,3.0,3.0,85,-99.99,,,-99.99,meteohub,2013-01-03 13:52:00,
2013-01-03 13:57:00,52.9,48.6,30.22,NNW,338,2.0,3.0,85,-99.99,,,-99.99,meteohub,2013-01-03 13:57:00,
2013-01-03 14:02:00,52.7,48.4,30.22,NNE,22,2.0,5.0,85,-99.99,,,-99.99,meteohub,2013-01-03 14:02:00,
2013-01-03 14:12:00,52.5,48.4,30.22,WNW,292,2.0,3.0,86,-99.99,,,-99.99,meteohub,2013-01-03 14:12:00,
2013-01-03 14:17:00,52.2,48.0,30.22,WSW,248,2.0,3.0,86,-99.99,,,-99.99,meteohub,2013-01-03 14:17:00,
2013-01-03 14:27:00,52.2,48.4,30.22,NNE,22,3.0,4.0,87,-99.99,,,-99.99,meteohub,2013-01-03 14:27:00,
2013-01-03 14:32:00,52.2,48.7,30.22,North,-999,-999.0,4.0,88,-99.99,,,-99.99,meteohub,2013-01-03 14:32:00,
2013-01-03 14:37:00,52.2,48.7,30.22,ESE,112,1.0,3.0,88,-99.99,,,-99.99,meteohub,2013-01-03 14:37:00,
2013-01-03 14:42:00,52.2,48.7,30.22,NNW,338,2.0,4.0,88,-99.99,,,-99.99,meteohub,2013-01-03 14:42:00,
2013-01-03 14:47:00,52.0,48.6,30.22,ESE,112,1.0,4.0,88,-99.99,,,-99.99,meteohub,2013-01-03 14:47:00,
2013-01-03 14:52:00,52.0,48.6,30.22,East,90,1.0,4.0,88,-99.99,,,-99.99,meteohub,2013-01-03 14:52:00,
2013-01-03 15:02:00,52.0,48.9,30.22,ENE,68,3.0,3.0,89,-99.99,,,-99.99,meteohub,2013-01-03 15:02:00,
2013-01-03 15:12:00,52.0,48.9,30.22,South,180,2.0,3.0,89,-99.99,,,-99.99,meteohub,2013-01-03 15:12:00,
2013-01-03 15:17:00,51.8,48.7,30.22,NNW,338,1.0,3.0,89,-99.99,,,-99.99,meteohub,2013-01-03 15:17:00,
2013-01-03 15:22:00,51.8,48.7,30.25,North,-999,-999.0,2.0,89,-99.99,,,-99.99,meteohub,2013-01-03 15:22:00,
2013-01-03 15:27:00,51.6,48.7,30.25,SSW,202,2.0,2.0,90,-99.99,,,-99.99,meteohub,2013-01-03 15:27:00,
2013-01-03 15:32:00,51.6,48.7,30.25,NNE,22,3.0,3.0,90,-99.99,,,-99.99,meteohub,2013-01-03 15:32:00,
2013-01-03 15:37:00,51.6,48.7,30.25,NNW,338,0.0,3.0,90,-99.99,,,-99.99,meteohub,2013-01-03 15:37:00,
2013-01-03 15:42:00,51.6,49.1,30.25,ESE,112,0.0,3.0,91,-99.99,,,-99.99,meteohub,2013-01-03 15:42:00,
2013-01-03 15:47:00,51.4,48.9,30.25,North,-999,-999.0,3.0,91,-99.99,,,-99.99,meteohub,2013-01-03 15:47:00,
2013-01-03 15:57:00,51.4,48.9,30.25,North,-999,-999.0,2.0,91,-99.99,,,-99.99,meteohub,2013-01-03 15:57:00,
2013-01-03 16:02:00,51.4,48.9,30.25,NNE,22,0.0,2.0,91,-99.99,,,-99.99,meteohub,2013-01-03 16:02:00,
2013-01-03 16:07:00,51.4,48.9,30.25,North,-999,-999.0,2.0,91,-99.99,,,-99.99,meteohub,2013-01-03 16:07:00,
2013-01-03 16:12:00,51.4,49.3,30.25,North,0,1.0,0.0,92,-99.99,,,-99.99,meteohub,2013-01-03 16:12:00,
2013-01-03 16:17:00,51.4,49.3,30.25,SSE,158,4.0,4.0,92,-99.99,,,-99.99,meteohub,2013-01-03 16:17:00,
2013-01-03 16:22:00,51.3,49.1,30.25,NNW,338,3.0,4.0,92,-99.99,,,-99.99,meteohub,2013-01-03 16:22:00,
2013-01-03 16:32:00,51.3,49.1,30.25,ESE,112,2.0,3.0,92,-99.99,,,-99.99,meteohub,2013-01-03 16:32:00,
2013-01-03 16:37:00,51.3,49.1,30.25,ENE,68,2.0,3.0,92,-99.99,,,-99.99,meteohub,2013-01-03 16:37:00,
2013-01-03 16:42:00,51.3,49.1,30.25,North,-999,-999.0,3.0,92,-99.99,,,-99.99,meteohub,2013-01-03 16:42:00,
2013-01-03 16:52:00,51.1,48.6,30.25,ESE,112,2.0,3.0,91,-99.99,,,-99.99,meteohub,2013-01-03 16:52:00,
2013-01-03 16:57:00,51.1,48.9,30.25,ESE,112,2.0,3.0,92,-99.99,,,-99.99,meteohub,2013-01-03 16:57:00,
2013-01-03 17:02:00,51.1,48.9,30.25,WNW,292,2.0,4.0,92,-99.99,,,-99.99,meteohub,2013-01-03 17:02:00,
2013-01-03 17:07:00,50.9,48.4,30.25,ENE,68,1.0,4.0,91,-99.99,,,-99.99,meteohub,2013-01-03 17:07:00,
2013-01-03 17:12:00,50.9,48.4,30.25,NNE,22,4.0,4.0,91,-99.99,,,-99.99,meteohub,2013-01-03 17:12:00,
2013-01-03 17:27:00,50.7,48.6,30.25,NNW,338,1.0,4.0,92,-99.99,,,-99.99,meteohub,2013-01-03 17:27:00,
2013-01-03 17:32:00,50.7,48.6,30.25,SSW,202,4.0,4.0,92,-99.99,,,-99.99,meteohub,2013-01-03 17:32:00,
2013-01-03 17:37:00,50.7,48.6,30.28,NNE,22,2.0,4.0,92,-99.99,,,-99.99,meteohub,2013-01-03 17:37:00,
2013-01-03 17:42:00,50.7,48.6,30.28,NW,315,0.0,4.0,92,-99.99,,,-99.99,meteohub,2013-01-03 17:42:00,
2013-01-03 17:47:00,50.5,48.4,30.28,North,-999,-999.0,4.0,92,-99.99,,,-99.99,meteohub,2013-01-03 17:47:00,
2013-01-03 17:52:00,50.5,48.4,30.28,NW,315,1.0,3.0,92,-99.99,,,-99.99,meteohub,2013-01-03 17:52:00,
2013-01-03 18:02:00,50.5,48.4,30.28,North,-999,-999.0,2.0,92,-99.99,,,-99.99,meteohub,2013-01-03 18:02:00,
2013-01-03 18:12:00,50.7,48.6,30.28,ESE,112,3.0,3.0,92,-99.99,,,-99.99,meteohub,2013-01-03 18:12:00,
2013-01-03 18:17:00,50.7,48.6,30.28,North,0,2.0,3.0,92,-99.99,,,-99.99,meteohub,2013-01-03 18:17:00,
2013-01-03 18:22:00,50.7,48.6,30.28,NNE,22,3.0,3.0,92,-99.99,,,-99.99,meteohub,2013-01-03 18:22:00,
2013-01-03 18:27:00,50.5,48.4,30.28,North,-999,-999.0,3.0,92,-99.99,,,-99.99,meteohub,2013-01-03 18:27:00,
2013-01-03 18:32:00,50.5,48.4,30.28,NW,315,2.0,3.0,92,-99.99,,,-99.99,meteohub,2013-01-03 18:32:00,
2013-01-03 18:37:00,50.5,48.4,30.28,NNW,338,4.0,4.0,92,-99.99,,,-99.99,meteohub,2013-01-03 18:37:00,
2013-01-03 18:42:00,50.7,48.6,30.28,ESE,112,3.0,4.0,92,-99.99,,,-99.99,meteohub,2013-01-03 18:42:00,
2013-01-03 18:47:00,50.7,48.6,30.28,North,-999,-999.0,4.0,92,-99.99,,,-99.99,meteohub,2013-01-03 18:47:00,
2013-01-03 18:57:00,50.7,48.6,30.28,ENE,68,3.0,3.0,92,-99.99,,,-99.99,meteohub,2013-01-03 18:57:00,
2013-01-03 19:02:00,50.7,48.6,30.28,North,-999,-999.0,3.0,92,-99.99,,,-99.99,meteohub,2013-01-03 19:02:00,
2013-01-03 19:12:00,50.7,48.6,30.28,North,-999,-999.0,3.0,92,-99.99,,,-99.99,meteohub,2013-01-03 19:12:00,
2013-01-03 19:17:00,50.7,48.6,30.28,North,-999,-999.0,1.0,92,-99.99,,,-99.99,meteohub,2013-01-03 19:17:00,
2013-01-03 19:52:00,50.9,48.7,30.28,WNW,292,2.0,4.0,92,-99.99,,,-99.99,meteohub,2013-01-03 19:52:00,
2013-01-03 20:12:00,50.9,48.7,30.28,North,-999,-999.0,2.0,92,-99.99,,,-99.99,meteohub,2013-01-03 20:12:00,
2013-01-03 20:22:00,50.9,48.7,30.28,ENE,68,4.0,4.0,92,-99.99,,,-99.99,meteohub,2013-01-03 20:22:00,
2013-01-03 20:42:00,50.9,48.7,30.28,North,-999,-999.0,3.0,92,-99.99,,,-99.99,meteohub,2013-01-03 20:42:00,
2013-01-03 20:52:00,51.1,48.9,30.28,NNW,338,2.0,2.0,92,-99.99,,,-99.99,meteohub,2013-01-03 20:52:00,
2013-01-03 21:17:00,51.1,48.9,30.28,North,-999,-999.0,1.0,92,-99.99,,,-99.99,meteohub,2013-01-03 21:17:00,
2013-01-03 21:22:00,51.1,49.1,30.28,North,-999,-999.0,1.0,93,-99.99,,,-99.99,meteohub,2013-01-03 21:22:00,
2013-01-03 21:27:00,51.1,49.1,30.28,North,-999,-999.0,-999.0,93,-99.99,,,-99.99,meteohub,2013-01-03 21:27:00,
2013-01-03 21:37:00,51.1,49.1,30.28,SSW,202,0.0,2.0,93,-99.99,,,-99.99,meteohub,2013-01-03 21:37:00,
2013-01-03 21:42:00,51.1,49.1,30.28,North,-999,-999.0,2.0,93,-99.99,,,-99.99,meteohub,2013-01-03 21:42:00,
2013-01-03 21:52:00,51.1,49.1,30.31,NNE,22,2.0,3.0,93,-99.99,,,-99.99,meteohub,2013-01-03 21:52:00,
2013-01-03 22:12:00,51.1,48.9,30.28,North,-999,-999.0,4.0,92,-99.99,,,-99.99,meteohub,2013-01-03 22:12:00,
2013-01-03 22:17:00,51.1,48.9,30.28,ESE,112,2.0,2.0,92,-99.99,,,-99.99,meteohub,2013-01-03 22:17:00,
2013-01-03 22:22:00,51.1,48.9,30.31,North,-999,-999.0,2.0,92,-99.99,,,-99.99,meteohub,2013-01-03 22:22:00,
2013-01-03 22:32:00,51.1,48.9,30.31,ENE,68,3.0,3.0,92,-99.99,,,-99.99,meteohub,2013-01-03 22:32:00,
2013-01-03 22:37:00,51.1,48.9,30.31,North,-999,-999.0,3.0,92,-99.99,,,-99.99,meteohub,2013-01-03 22:37:00,
2013-01-03 22:57:00,50.9,48.4,30.31,North,-999,-999.0,1.0,91,-99.99,,,-99.99,meteohub,2013-01-03 22:57:00,
2013-01-03 23:02:00,50.9,48.4,30.31,North,-999,-999.0,1.0,91,-99.99,,,-99.99,meteohub,2013-01-03 23:02:00,
2013-01-03 23:12:00,50.9,48.4,30.28,NNW,338,4.0,4.0,91,-99.99,,,-99.99,meteohub,2013-01-03 23:12:00,
2013-01-03 23:17:00,50.9,48.4,30.28,WSW,248,3.0,4.0,91,-99.99,,,-99.99,meteohub,2013-01-03 23:17:00,
2013-01-03 23:27:00,50.7,48.2,30.31,North,-999,-999.0,3.0,91,-99.99,,,-99.99,meteohub,2013-01-03 23:27:00,
2013-01-03 23:32:00,50.7,47.8,30.31,North,-999,-999.0,3.0,90,-99.99,,,-99.99,meteohub,2013-01-03 23:32:00,
2013-01-03 23:47:00,50.5,47.7,30.31,North,-999,-999.0,3.0,90,-99.99,,,-99.99,meteohub,2013-01-03 23:47:00,
2013-01-03 23:52:00,50.4,47.5,30.31,NNW,338,1.0,3.0,90,-99.99,,,-99.99,meteohub,2013-01-03 23:52:00,
2013-01-03 23:57:00,50.4,47.5,30.31,WNW,292,3.0,3.0,90,-99.99,,,-99.99,meteohub,2013-01-03 23:57:00,